sat.trackr.live / text

‹ back to catalog

STARLINK-6138

NORAD 57329 · 2023-099B

PAYLOAD ACTIVE UNKNOWN

§ Identity

Operator
Country
US
Launch date
2023-07-16
Launch site
AFETR
Launch vehicle
Mass (kg)
RCS (m²)

Purposes: comms

External: N2YO · Heavens-Above · Gunter

§ Orbital elements

Epoch: 2026-05-24T10:56:25.803744Z

Period
94.27 min
Inclination
43.0024°
Eccentricity
0.0001322
Mean motion
15.27576280 rev/d
Perigee alt
482.2 km
Apogee alt
484.0 km
Semi-major
6,861.2 km
B*
4.7869e-6
RAAN
184.5339°
Arg perigee
267.3481°
Mean anomaly
92.7219°
Rev number
15,766

§ Raw data

STARLINK-61381 57329U 23099B   26144.45585421 -.00000130  00000+0  47869-5 0  99932 57329  43.0024 184.5339 0001322 267.3481  92.7219 15.27576280157661

JSON: /api/v1/satellites/57329 · /tle

For live sub-satellite position, see the globe view (requires WebGL).

§ Visibility from observer

Set your observer location to see the next 7 days of passes ≥ 10°. The values pass through the URL so the page stays shareable.

No JS? Fill the form by hand. The geolocation button needs JavaScript.